Antalya, Turkey

10:52 AM +03 on May 21, 2018 (GMT +0300)
Antalya

Weather History for LTAI - January, 2013

Change the Weather History Date:

Thursday, January 3, 2013

  Actual Average Record
Temperature  
Mean Temperature 56 °F -  
Max Temperature 66 °F 59 °F 66 °F (2001)
Min Temperature 47 °F 43 °F 28 °F (2016)
Degree Days  
Heating Degree Days 8    
Growing Degree Days 6 (Base 50)    
Moisture  
Dew Point 48 °F    
Average Humidity 82    
Maximum Humidity 100    
Minimum Humidity 41    
Precipitation  
Precipitation 0.00 in 0.31 in - ()
Sea Level Pressure  
Sea Level Pressure 30.29 in    
Wind  
Wind Speed 4 mph ()    
Max Wind Speed 9 mph    
Max Gust Speed -    
Visibility 5.6 miles    
Events      
Averages and records for this station are not official NWS values.
T = Trace of Precipitation, MM = Missing Value Source: Averaged Metar Reports

Daily Weather History Graph

Daily Weather History Graph

Search for Another Location

Airport or City:

Astronomy

Jan. 03, 2013 Rise Set
Actual Time 7:10 AM EET 4:53 PM EET
Civil Twilight 6:41 AM EET 5:21 PM EET
Nautical Twilight 6:09 AM EET 5:54 PM EET
Astronomical Twilight 5:37 AM EET 6:25 PM EET
Moon 10:57 PM EET (1/3) 10:21 AM EET (1/3)
Length of Visible Light 10h 40m
Length of Day
9h 42m
Waning Gibbous, 68% of the Moon is Illuminated
Jan 3
Waning Gibbous
Jan 5
Last Quarter
Jan 11
New
Jan 19
First Quarter
Jan 27
Full

Hourly Weather History & Observations

Time (EET) Temp. Dew Point Humidity Pressure Visibility Wind Dir Wind Speed Gust Speed Precip Events Conditions
12:20 AM 51.8 °F 48.2 °F 88% 30.30 in 6.2 mi NNW 3.5 mph - N/A   Scattered Clouds
12:50 AM 50.0 °F 48.2 °F 94% 30.30 in 6.2 mi NNW 4.6 mph - N/A   Scattered Clouds
1:20 AM 50.0 °F 48.2 °F 94% 30.30 in 6.2 mi North 3.5 mph - N/A   Scattered Clouds
1:50 AM 50.0 °F 48.2 °F 94% 30.30 in 6.2 mi North 4.6 mph - N/A   Scattered Clouds
2:00 AM 50 °F 48 °F 91% 30.30 in 6 mi North 4.6 mph - -   Partly Cloudy
2:20 AM 50.0 °F 48.2 °F 94% 30.30 in 6.2 mi North 3.5 mph - N/A   Scattered Clouds
2:50 AM 50.0 °F 48.2 °F 94% 30.30 in 6.2 mi NW 4.6 mph - N/A   Scattered Clouds
3:20 AM 50.0 °F 48.2 °F 94% 30.30 in 6.2 mi NW 4.6 mph - N/A   Scattered Clouds
3:50 AM 50.0 °F 46.4 °F 87% 30.30 in 6.2 mi North 5.8 mph - N/A   Scattered Clouds
4:20 AM 48.2 °F 46.4 °F 93% 30.30 in 6.2 mi NNW 5.8 mph - N/A   Scattered Clouds
4:50 AM 48.2 °F 46.4 °F 93% 30.30 in 6.2 mi Variable 1.2 mph - N/A   Scattered Clouds
5:20 AM 48.2 °F 46.4 °F 93% 30.30 in 6.2 mi NNW 5.8 mph - N/A   Scattered Clouds
5:50 AM 48.2 °F 44.6 °F 87% 30.33 in 6.2 mi NNW 4.6 mph - N/A   Scattered Clouds
6:20 AM 50.0 °F 46.4 °F 87% 30.33 in 6.2 mi North 4.6 mph - N/A   Scattered Clouds
6:50 AM 50.0 °F 46.4 °F 87% 30.33 in 6.2 mi North 6.9 mph - N/A   Scattered Clouds
7:20 AM 50.0 °F 46.4 °F 87% 30.33 in 6.2 mi North 6.9 mph - N/A   Scattered Clouds
7:50 AM 50.0 °F 46.4 °F 87% 30.33 in 6.2 mi North 3.5 mph - N/A   Scattered Clouds
8:00 AM 50 °F 46 °F 82% 30.33 in 6 mi North 3.5 mph - -   Partly Cloudy
8:20 AM 50.0 °F 46.4 °F 87% 30.33 in 6.2 mi NNW 5.8 mph - N/A   Scattered Clouds
8:50 AM 51.8 °F 48.2 °F 88% 30.33 in 6.2 mi North 6.9 mph - N/A   Scattered Clouds
9:20 AM 53.6 °F 48.2 °F 82% 30.33 in 6.2 mi NNW 5.8 mph - N/A   Scattered Clouds
9:50 AM 59.0 °F 48.2 °F 67% 30.36 in 6.2 mi NNW 4.6 mph - N/A   Scattered Clouds
10:20 AM 59.0 °F 48.2 °F 67% 30.36 in 6.2 mi North 3.5 mph - N/A   Partly Cloudy
10:50 AM 62.6 °F 48.2 °F 59% 30.33 in 6.2 mi NNW 1.2 mph - N/A   Partly Cloudy
11:20 AM 62.6 °F 48.2 °F 59% 30.33 in 6.2 mi Variable 2.3 mph - N/A   Partly Cloudy
11:50 AM 64.4 °F 46.4 °F 52% 30.30 in 6.2 mi Variable 2.3 mph - N/A   Partly Cloudy
12:20 PM 64.4 °F 44.6 °F 49% 30.30 in 6.2 mi Variable 2.3 mph - N/A   Partly Cloudy
12:50 PM 64.4 °F 44.6 °F 49% 30.27 in 6.2 mi Variable 3.5 mph - N/A   Partly Cloudy
1:20 PM 64.4 °F 48.2 °F 56% 30.27 in 6.2 mi SSW 3.5 mph - N/A   Partly Cloudy
1:50 PM 64.4 °F 48.2 °F 56% 30.27 in 6.2 mi South 6.9 mph - N/A   Partly Cloudy
2:00 PM 64 °F 46 °F 41% 30.26 in 12 mi South 6.9 mph - -   Scattered Clouds
2:20 PM 62.6 °F 48.2 °F 59% 30.27 in 6.2 mi South 9.2 mph - N/A   Partly Cloudy
2:50 PM 62.6 °F 50.0 °F 63% 30.27 in 6.2 mi South 6.9 mph - N/A   Partly Cloudy
3:20 PM 62.6 °F 51.8 °F 68% 30.27 in 6.2 mi South 9.2 mph - N/A   Partly Cloudy
3:50 PM 60.8 °F 53.6 °F 77% 30.24 in 6.2 mi South 9.2 mph - N/A   Partly Cloudy
4:20 PM 60.8 °F 53.6 °F 77% 30.24 in 6.2 mi SSW 6.9 mph - N/A   Partly Cloudy
4:50 PM 57.2 °F 51.8 °F 82% 30.24 in 6.2 mi SSW 5.8 mph - N/A   Partly Cloudy
5:20 PM 55.4 °F 51.8 °F 88% 30.24 in 6.2 mi SSW 5.8 mph - N/A   Partly Cloudy
5:50 PM 55.4 °F 51.8 °F 88% 30.27 in 6.2 mi Variable 1.2 mph - N/A   Partly Cloudy
6:20 PM 53.6 °F 51.8 °F 94% 30.27 in 6.2 mi North 3.5 mph - N/A   Partly Cloudy
6:50 PM 53.6 °F 51.8 °F 94% 30.27 in 3.7 mi North 5.8 mph - N/A   Partly Cloudy
7:20 PM 53.6 °F 50.0 °F 88% 30.27 in 2.5 mi NNE 4.6 mph - N/A   Partly Cloudy
7:50 PM 51.8 °F 50.0 °F 94% 30.27 in 2.5 mi North 5.8 mph - N/A   Partly Cloudy
8:00 PM 52 °F 50 °F 91% 30.26 in 2 mi North 5.8 mph - -   Mist
8:20 PM 51.8 °F 50.0 °F 94% 30.27 in 2.5 mi North 6.9 mph - N/A   Partly Cloudy
8:50 PM 50.0 °F 50.0 °F 100% 30.24 in 2.5 mi NNW 4.6 mph - N/A   Partly Cloudy
9:20 PM 50.0 °F 48.2 °F 94% 30.27 in 2.5 mi North 5.8 mph - N/A   Partly Cloudy
9:50 PM 48.2 °F 48.2 °F 100% 30.27 in 3.7 mi NNW 4.6 mph - N/A   Partly Cloudy
10:20 PM 50.0 °F 48.2 °F 94% 30.24 in 3.7 mi North 4.6 mph - N/A   Partly Cloudy
10:50 PM 48.2 °F 48.2 °F 100% 30.24 in 3.7 mi North 5.8 mph - N/A   Partly Cloudy
11:20 PM 48.2 °F 48.2 °F 100% 30.24 in 3.7 mi North 5.8 mph - N/A   Partly Cloudy
11:50 PM 50.0 °F 48.2 °F 94% 30.24 in 6.2 mi NNW 5.8 mph - N/A   Partly Cloudy